FW6146 Weather Reports


Display with metric or nautical units.
time (UTC)temp
F
wind
direction
speed
MPH
gust
MPH
rain 1hr
in
rain 24hr
in
rain mn
in
humidity
%
barometer
mb
20260831083001 63 0.0 0.0 0.00 0.00 0.00 98 1017.9
20260831082027 63 0.0 0.0 0.00 0.00 0.00 98 1017.8
20260831081007 64 0.0 0.0 0.00 0.00 0.00 98 1017.9
20260831075953 63 0.0 0.0 0.00 0.00 0.00 98 1017.8
20260831075012 64 0.0 0.0 0.00 0.00 0.00 98 1017.6
20260831073959 64 0.0 0.0 0.00 0.00 0.00 98 1017.4
20260831072945 64 0.0 0.0 0.00 0.00 0.00 98 1017.2
20260831072004 64 0.0 0.0 0.00 0.00 0.00 98 1017.3
20260831070950 64 0.0 0.0 0.00 0.00 0.00 98 1017.2
20260831070008 64 0.0 0.0 0.00 0.00 0.00 98 1017.3
20260831065015 65 0.0 0.0 0.00 0.00 0.00 98 1017.2
20260831064014 65 0.0 0.0 0.00 0.00 0.00 98 1017.1
20260831063000 65 0.0 0.0 0.00 0.00 0.00 98 1017.1
20260831061946 65 0.0 0.0 0.00 0.00 0.00 98 1017.3
20260831061005 65 0.0 0.0 0.00 0.00 0.00 97 1017.1
20260831055951 66 0.0 0.0 0.00 0.00 0.00 97 1017.1
20260831055011 66 0.0 0.0 0.00 0.00 0.00 97 1017.1
20260831053957 66 0.0 0.0 0.00 0.00 0.00 97 1016.7
20260831053016 66 0.0 0.0 0.00 0.00 0.00 97 1016.8
20260831052022 67 0.0 0.0 0.00 0.00 0.00 97 1016.7
20260831051102 67 0.0 0.0 0.00 0.00 0.00 97 1016.6
20260831050008 67 0.0 0.0 0.00 0.00 0.00 97 1016.6
20260831045014 67 0.0 0.0 0.00 0.00 0.00 97 1016.7
20260831044033 68 0.0 0.0 0.00 0.00 0.00 97 1016.7
20260831043000 68 0.0 0.0 0.00 0.00 0.00 97 1016.8
20260831042019 68 0.0 0.0 0.00 0.00 0.00 96 1016.6
20260831041005 68 0.0 0.0 0.00 0.00 0.00 96 1016.7
20260831040024 68 0.0 0.0 0.00 0.00 0.00 96 1016.5
20260831035010 68 0.0 0.0 0.00 0.00 0.00 95 1016.6
20260831034017 68 293 0.0 1.0 0.00 0.00 0.00 95 1016.4
20260831033036 69 289 1.0 1.0 0.00 0.00 0.00 94 1016.7
20260831032002 69 0.0 0.0 0.00 0.00 0.00 93 1017.1
20260831031020 70 289 0.0 1.0 0.00 0.00 0.00 91 1016.9
20260831030006 71 285 1.0 2.0 0.00 0.00 0.00 88 1017.0
20260831025012 72 292 2.0 5.0 0.00 0.00 0.00 84 1016.6
20260831024011 73 258 1.0 2.0 0.00 0.00 0.00 83 1016.7
20260831023017 73 0.0 0.0 0.00 0.00 0.00 82 1016.7
20260831022017 73 284 0.0 1.0 0.00 0.00 0.00 80 1016.5
20260831021023 73 0.0 0.0 0.00 0.00 0.00 79 1016.5
20260831020022 73 283 0.0 1.0 0.00 0.00 0.00 78 1016.5
20260831015008 73 289 0.0 2.0 0.00 0.00 0.00 78 1016.5
20260831014027 73 287 0.0 2.0 0.00 0.00 0.00 77 1016.4
20260831013014 73 282 1.0 1.0 0.00 0.00 0.00 76 1016.3
20260831012000 74 287 1.0 1.0 0.00 0.00 0.00 76 1016.0
20260831011019 74 282 1.0 2.0 0.00 0.00 0.00 75 1016.1
20260831010005 74 286 0.0 3.0 0.00 0.00 0.00 74 1016.1
20260831005025 74 252 2.0 3.0 0.00 0.00 0.00 73 1016.0
20260831004011 74 279 1.0 3.0 0.00 0.00 0.00 72 1016.1
20260831003030 74 268 1.0 2.0 0.00 0.00 0.00 71 1016.0
20260831002016 74 271 2.0 3.0 0.00 0.00 0.00 70 1015.7
20260831001002 74 237 2.0 7.0 0.00 0.00 0.00 69 1015.7
20260831000021 74 256 1.0 2.0 0.00 0.00 0.00 69 1015.6
20260830235008 75 279 1.0 2.0 0.00 0.00 0.00 69 1015.6
20260830234027 75 249 3.0 3.0 0.00 0.00 0.00 67 1015.6
20260830233013 75 236 2.0 3.0 0.00 0.00 0.00 66 1015.6
20260830231926 75 265 1.0 3.0 0.00 0.00 0.00 66 1015.7
20260830230912 76 234 3.0 5.0 0.00 0.00 0.00 65 1015.7
20260830225932 76 238 2.0 3.0 0.00 0.00 0.00 64 1015.7
20260830224918 76 261 2.0 5.0 0.00 0.00 0.00 63 1016.1
20260830223944 76 230 3.0 5.0 0.00 0.00 0.00 62 1016.0
20260830222924 77 280 1.0 2.0 0.00 0.00 0.00 61 1016.1
20260830221910 77 258 1.0 5.0 0.00 0.00 0.00 60 1016.0
20260830220929 77 233 2.0 5.0 0.00 0.00 0.00 59 1016.0
20260830215915 77 270 1.0 1.0 0.00 0.00 0.00 59 1016.0
20260830214934 78 279 0.0 2.0 0.00 0.00 0.00 58 1016.2
20260830213920 78 0.0 2.0 0.00 0.00 0.00 57 1016.1
20260830212906 78 278 1.0 1.0 0.00 0.00 0.00 57 1016.2
20260830211925 78 267 1.0 2.0 0.00 0.00 0.00 56 1016.2
20260830210911 78 252 1.0 3.0 0.00 0.00 0.00 56 1016.0
20260830205931 78 282 1.0 1.0 0.00 0.00 0.00 56 1016.1
20260830204917 79 237 3.0 6.0 0.00 0.00 0.00 54 1016.0
20260830203903 79 248 2.0 5.0 0.00 0.00 0.00 54 1016.2
20260830202923 79 265 1.0 2.0 0.00 0.00 0.00 56 1016.2
20260830201909 79 280 1.0 1.0 0.00 0.00 0.00 54 1016.3
20260830200928 79 0.0 2.0 0.00 0.00 0.00 53 1016.6
20260830195914 80 267 1.0 3.0 0.00 0.00 0.00 53 1016.5
20260830194933 80 278 1.0 1.0 0.00 0.00 0.00 56 1016.7
20260830193920 80 239 2.0 2.0 0.00 0.00 0.00 54 1016.8
20260830192906 80 267 2.0 2.0 0.00 0.00 0.00 55 1016.9
20260830191925 81 279 1.0 5.0 0.00 0.00 0.00 53 1017.0
20260830190911 81 213 3.0 6.0 0.00 0.00 0.00 50 1017.2
20260830185930 82 267 3.0 5.0 0.00 0.00 0.00 50 1017.2
20260830184916 82 280 2.0 5.0 0.00 0.00 0.00 50 1017.4
20260830183936 82 235 4.0 6.0 0.00 0.00 0.00 48 1017.3
20260830182922 82 267 1.0 3.0 0.00 0.00 0.00 47 1017.3
20260830181941 84 277 1.0 5.0 0.00 0.00 0.00 45 1017.2
20260830180927 86 296 1.0 3.0 0.00 0.00 0.00 45 1017.4
20260830175932 83 237 2.0 5.0 0.00 0.00 0.00 47 1017.8
20260830174951 82 291 2.0 3.0 0.00 0.00 0.00 48 1017.7
20260830173917 82 290 1.0 2.0 0.00 0.00 0.00 51 1017.7
20260830172937 82 290 1.0 1.0 0.00 0.00 0.00 49 1017.7
20260830171943 82 270 1.0 3.0 0.00 0.00 0.00 48 1018.0
20260830171002 84 266 2.0 5.0 0.00 0.00 0.00 45 1018.1
20260830165929 83 285 2.0 3.0 0.00 0.00 0.00 46 1018.0
20260830164915 83 280 3.0 5.0 0.00 0.00 0.00 47 1018.1
20260830164015 83 285 3.0 6.0 0.00 0.00 0.00 48 1018.1
20260830162921 83 293 1.0 3.0 0.00 0.00 0.00 50 1018.1
20260830161940 81 303 2.0 3.0 0.00 0.00 0.00 50 1018.4
20260830160947 82 278 2.0 3.0 0.00 0.00 0.00 49 1018.3
20260830155912 81 275 2.0 6.0 0.00 0.00 0.00 50 1018.4
20260830154931 81 279 3.0 7.0 0.00 0.00 0.00 50 1018.6
20260830153917 81 279 1.0 5.0 0.00 0.00 0.00 52 1018.6
20260830152956 80 293 2.0 3.0 0.00 0.00 0.00 54 1018.8
20260830151922 80 266 1.0 5.0 0.00 0.00 0.00 54 1018.9
20260830150941 79 275 1.0 3.0 0.00 0.00 0.00 54 1018.9
20260830145926 79 250 2.0 5.0 0.00 0.00 0.00 55 1019.0
20260830144946 78 257 2.0 3.0 0.00 0.00 0.00 56 1019.1
20260830143932 77 241 1.0 5.0 0.00 0.00 0.00 58 1019.4
20260830142918 77 258 1.0 2.0 0.00 0.00 0.00 59 1019.3
20260830141938 77 308 1.0 2.0 0.00 0.00 0.00 58 1019.4
20260830140944 76 291 1.0 2.0 0.00 0.00 0.00 60 1019.6
20260830135942 75 211 1.0 2.0 0.00 0.00 0.00 62 1019.6
20260830134929 74 252 3.0 5.0 0.00 0.00 0.00 61 1019.7
20260830134008 73 259 1.0 3.0 0.00 0.00 0.00 62 1019.9
20260830132954 72 271 1.0 2.0 0.00 0.00 0.00 65 1020.0
20260830131920 71 254 1.0 2.0 0.00 0.00 0.00 66 1019.9
20260830130940 70 262 1.0 2.0 0.00 0.00 0.00 70 1020.0
20260830125926 69 250 1.0 1.0 0.00 0.00 0.00 72 1020.0
20260830125005 68 258 1.0 2.0 0.00 0.00 0.00 73 1020.3
20260830123951 67 290 0.0 2.0 0.00 0.00 0.00 75 1020.3
20260830122951 66 286 0.0 2.0 0.00 0.00 0.00 76 1020.3
20260830121937 64 0.0 0.0 0.00 0.00 0.00 81 1020.4
20260830120923 64 0.0 0.0 0.00 0.00 0.00 80 1020.5
20260830115942 64 0.0 1.0 0.00 0.00 0.00 79 1020.6
20260830114929 64 275 0.0 1.0 0.00 0.00 0.00 79 1020.5
20260830113948 62 0.0 0.0 0.00 0.00 0.00 82 1020.5
20260830112934 61 0.0 0.0 0.00 0.00 0.00 85 1020.5
20260830111920 60 0.0 0.0 0.00 0.00 0.00 85 1020.3
20260830111000 60 0.0 0.0 0.00 0.00 0.00 85 1020.4
20260830105926 59 0.0 0.0 0.00 0.00 0.00 86 1020.5
20260830104945 59 0.0 0.0 0.00 0.00 0.00 87 1020.3
20260830103931 59 0.0 0.0 0.00 0.00 0.00 87 1020.5
20260830102951 59 0.0 0.0 0.00 0.00 0.00 87 1020.6
20260830101937 59 0.0 0.0 0.00 0.00 0.00 87 1020.8
20260830100923 59 0.0 0.0 0.00 0.00 0.00 87 1020.5
20260830095943 59 0.0 0.0 0.00 0.00 0.00 87 1020.7
20260830094929 59 0.0 0.0 0.00 0.00 0.00 86 1020.5
20260830094008 59 0.0 0.0 0.00 0.00 0.00 85 1020.5
20260830092935 59 0.0 0.0 0.00 0.00 0.00 85 1020.4
20260830091953 59 0.0 0.0 0.00 0.00 0.00 85 1020.4
20260830090940 59 0.0 0.0 0.00 0.00 0.00 85 1020.5
20260830085926 59 0.0 0.0 0.00 0.00 0.00 86 1020.7
20260830084944 59 0.0 0.0 0.00 0.00 0.00 86 1020.7
20260830083930 59 0.0 0.0 0.00 0.00 0.00 86 1021.0